Location: Buisson
(44.2787°N, 4.9969°E)
Time: 07:14:52
(UTC+00:00)

Cosmos 489 Rocket - Pass Details

Date: 18 April 2021
Orbit: 953 x 982 km, 74.0° (Epoch: 05 May)

Event Time Altitude Azimuth Distance (km) Brightness Sun altitude
Rises 02:56:01 0° 338° (NNW) 3,639 7.7 -19.2°
Reaches altitude 10° 02:58:33 10° 339° (NNW) 2,690 7.0 -18.8°
Maximum altitude 03:04:47 89° 251° (WSW) 961 4.4 -17.9°
Drops below altitude 10° 03:10:59 10° 162° (SSE) 2,681 6.6 -17.0°
Sets 03:13:30 0° 162° (SSE) 3,626 7.3 -16.6°
